Location: Pinhey's Point
(45.4411°N, 75.9539°W)
Time: 05:40:57
(UTC-04:00)

Iridium 65 - Visible Passes

Search period start: 26 May 2015 00:00
Search period end: 05 June 2015 00:00
Orbit: 776 x 779 km, 86.4° (Epoch: 25 May)

Date Brightness Start Highest point End Pass type
(mag) Time Alt. Az. Time Alt. Az. Time Alt. Az.
26 May 7.1 21:32:02 10° SSW 21:36:54 38° W 21:41:45 10° NNW visible
28 May 8.3 22:07:48 10° WSW 22:11:06 16° WNW 22:14:12 10° NNW visible
29 May 7.7 21:32:42 10° SW 21:37:11 28° WNW 21:41:34 10° NNW visible
31 May 8.7 22:09:43 10° W 22:11:32 11° WNW 22:13:02 10° NW visible
01 Jun 8.2 21:33:38 10° WSW 21:37:30 20° WNW 21:41:14 10° NNW visible
04 Jun 8.5 21:34:58 10° WSW 21:37:53 14° WNW 21:40:34 10° NW visible
